Location: ???????
(55.3754°N, 39.3545°E)
Time: 15:03:25
(UTC+00:00)

Cosmos 614 Rocket - Pass Details

Date: 14 April 2026
Orbit: 728 x 757 km, 74.1° (Epoch: 17 May)

Event Time Altitude Azimuth Distance (km) Brightness Sun altitude
Rises 17:51:40 0° 332° (NNW) 3,225 8.5 -11.6°
Reaches altitude 10° 17:54:04 10° 334° (NNW) 2,293 7.5 -11.9°
Maximum altitude 17:59:17 77° 61° (ENE) 777 4.0 -12.5°
Enters shadow 18:03:13 17° 146° (SE) 1,809 5.3 -12.9°
